Date String (YYYY-MM-DD hh:mm:ss) UTC,Instrument flags,absolute air pressure of the measurement (hPa),sample flow rate (lpm),inlet stack bypass flow (lpm),air temperature of the measurement (°C),ambient temperature measured by the external sensor (°C),aerosol sample conditioner tube jacket temperature (°C),OPC LED temperature (°C),internal box temperature (°C),relative humidity of the measurement (%),span deviation,mass concentration of particles derived from Lorenz-Mie calculation of OPC scattering (μg/m³),mass concentration of particles derived from Lorenz-Mie calculation of OPC scattering (μg/m³),mass concentration of particles derived from Lorenz-Mie calculation of OPC scattering (μg/m³)
DateTimeUTC,F1_M11,P_M11,Q1_M11,Q2_M11,T1_M11,T2_M11,T3_M11,T4_M11,T5_M11,U1_M11,ZSPAN_M11,X0_M11,X2_M11,X1_M11
2024-05-11 10:00:00,SystemResetWarning,0831.3,4.99,000.00,025.1,024.4,000.0,033.5,026.8,018.8,0000.0,0006.59,0003.50,0003.30
2024-05-11 10:01:00,SystemResetWarning,0831.3,5.01,000.00,025.1,024.4,000.0,033.5,026.9,018.7,0000.0,0006.65,0003.53,0003.32
2024-05-11 10:02:00,SystemResetWarning,0831.3,5.01,000.00,025.1,024.4,000.0,033.5,026.9,018.7,0000.0,0006.51,0003.51,0003.32
2024-05-11 10:03:00,SystemResetWarning,0831.3,4.99,000.00,025.1,024.4,000.0,033.5,026.9,018.7,0000.0,0006.38,0003.50,0003.32
2024-05-11 10:04:00,SystemResetWarning,0831.3,4.99,000.00,025.1,024.4,000.0,033.5,026.9,018.8,0000.0,0006.37,0003.51,0003.31
2024-05-11 10:05:00,SystemResetWarning,0831.2,5.02,000.00,025.1,024.4,000.0,033.5,026.8,018.9,0000.0,0006.30,0003.50,0003.31
2024-05-11 10:06:00,SystemResetWarning,0831.2,5.00,000.00,025.1,024.4,000.0,033.5,026.8,018.9,0000.0,0006.24,0003.48,0003.31
2024-05-11 10:07:00,SystemResetWarning,0831.2,4.99,000.00,025.1,024.4,000.0,033.5,026.9,018.9,0000.0,0004.93,0003.46,0003.29
2024-05-11 10:08:00,SystemResetWarning,0831.2,4.99,000.00,025.1,024.4,000.0,033.5,026.9,018.9,0000.0,0004.55,0003.44,0003.29
2024-05-11 10:09:00,SystemResetWarning,0831.2,4.99,000.00,025.1,024.4,000.0,033.5,026.9,018.9,0000.0,0004.52,0003.42,0003.27
2024-05-11 10:10:00,SystemResetWarning,0831.2,5.00,000.00,025.1,024.4,000.0,033.5,026.8,018.9,0000.0,0005.39,0003.41,0003.25
2024-05-11 10:11:00,SystemResetWarning,0831.2,5.02,000.00,025.1,024.3,000.0,033.5,026.8,019.0,0000.0,0005.90,0003.42,0003.24
2024-05-11 10:12:00,SystemResetWarning,0831.2,4.99,000.00,025.1,024.3,000.0,033.5,026.8,019.1,0000.0,0005.95,0003.43,0003.26
2024-05-11 10:13:00,SystemResetWarning,0831.2,4.99,000.00,025.1,024.3,000.0,033.5,026.8,019.2,0000.0,0006.25,0003.49,0003.30
2024-05-11 10:14:00,SystemResetWarning,0831.2,4.99,000.00,025.1,024.4,000.0,033.5,026.8,019.1,0000.0,0006.32,0003.51,0003.33
2024-05-11 10:15:00,SystemResetWarning,0831.3,5.01,000.00,025.1,024.4,000.0,033.5,026.8,019.0,0000.0,0006.51,0003.54,0003.36
2024-05-11 10:16:00,SystemResetWarning,0831.3,5.01,000.00,025.1,024.4,000.0,033.5,026.8,018.9,0000.0,0006.63,0003.55,0003.37
2024-05-11 10:17:00,SystemResetWarning,0831.3,4.99,000.00,025.1,024.3,000.0,033.5,026.9,018.9,0000.0,0006.74,0003.57,0003.37
2024-05-11 10:18:00,SystemResetWarning,0831.3,5.00,000.00,025.1,024.3,000.0,033.5,026.9,018.9,0000.0,0006.79,0003.58,0003.37
2024-05-11 10:19:00,SystemResetWarning,0831.3,5.01,000.00,025.0,024.3,000.0,033.5,026.9,018.8,0000.0,0006.86,0003.59,0003.37
2024-05-11 10:20:00,SystemResetWarning,0831.3,5.01,000.00,025.0,024.3,000.0,033.5,026.8,018.7,0000.0,0006.87,0003.58,0003.36
2024-05-11 10:21:00,SystemResetWarning,0831.3,5.00,000.00,025.0,024.3,000.0,033.5,026.8,018.7,0000.0,0006.19,0003.57,0003.34
2024-05-11 10:22:00,SystemResetWarning,0831.3,4.99,000.00,025.0,024.2,000.0,033.5,026.8,018.4,0000.0,0005.52,0003.55,0003.32
2024-05-11 10:23:00,SystemResetWarning,0831.3,5.00,000.00,025.0,024.2,000.0,033.5,026.8,018.1,0000.0,0005.44,0003.50,0003.28
2024-05-11 10:24:00,SystemResetWarning,0831.3,5.00,000.00,025.0,024.2,000.0,033.5,026.8,018.0,0000.0,0005.14,0003.42,0003.21
2024-05-11 10:25:00,SystemResetWarning,0831.3,5.00,000.00,025.0,024.2,000.0,033.5,026.7,018.0,0000.0,0004.99,0003.34,0003.13
2024-05-11 10:26:00,SystemResetWarning,0831.3,5.01,000.00,025.0,024.2,000.0,033.5,026.7,018.0,0000.0,0004.78,0003.28,0003.04
2024-05-11 10:27:00,SystemResetWarning,0831.3,5.00,000.00,025.0,024.2,000.0,033.5,026.7,018.0,0000.0,0004.57,0003.23,0002.93
2024-05-11 10:28:00,SystemResetWarning,0831.3,5.00,000.00,025.0,024.2,000.0,033.5,026.7,018.0,0000.0,0004.29,0003.18,0002.85
2024-05-11 10:29:00,SystemResetWarning,0831.3,5.00,000.00,025.0,024.2,000.0,033.5,026.7,017.9,0000.0,0004.19,0003.13,0002.77
2024-05-11 10:30:00,SystemResetWarning,0831.3,5.00,000.00,024.9,024.1,000.0,033.5,026.7,017.9,0000.0,0004.13,0003.06,0002.68
2024-05-11 10:31:00,SystemResetWarning,0831.3,5.01,000.00,024.9,024.1,000.0,033.5,026.7,017.8,0000.0,0004.07,0002.99,0002.61
2024-05-11 10:32:00,SystemResetWarning,0831.3,5.01,000.00,024.9,024.1,000.0,033.5,026.7,017.7,0000.0,0003.96,0002.88,0002.51
2024-05-11 10:33:00,SystemResetWarning,0831.3,5.00,000.00,024.9,024.1,000.0,033.5,026.6,017.6,0000.0,0004.00,0002.77,0002.41
2024-05-11 10:34:00,SystemResetWarning,0831.3,5.01,000.00,024.9,024.1,000.0,033.4,026.6,017.5,0000.0,0003.84,0002.68,0002.34
2024-05-11 10:35:00,SystemResetWarning,0831.3,4.99,000.00,024.9,024.1,000.0,033.4,026.7,017.5,0000.0,0003.73,0002.62,0002.31
2024-05-11 10:36:00,SystemResetWarning,0831.2,4.99,000.00,024.9,024.1,000.0,033.4,026.6,017.5,0000.0,0003.73,0002.61,0002.29
2024-05-11 10:37:00,SystemResetWarning,0831.3,5.00,000.00,024.9,024.1,000.0,033.4,026.6,017.6,0000.0,0003.75,0002.61,0002.27
2024-05-11 10:38:00,SystemResetWarning,0831.2,5.00,000.00,024.9,024.1,000.0,033.4,026.6,017.6,0000.0,0003.73,0002.59,0002.28
2024-05-11 10:39:00,SystemResetWarning,0831.2,4.99,000.00,024.9,024.1,000.0,033.3,026.7,017.7,0000.0,0003.68,0002.57,0002.27
2024-05-11 10:40:00,SystemResetWarning,0831.2,5.01,000.00,024.9,024.1,000.0,033.3,026.6,017.7,0000.0,0003.56,0002.53,0002.25
2024-05-11 10:41:00,SystemResetWarning,0831.2,5.01,000.00,024.9,024.1,000.0,033.3,026.6,017.7,0000.0,0003.41,0002.49,0002.25
2024-05-11 10:42:00,SystemResetWarning,0831.2,4.98,000.00,024.9,024.1,000.0,033.3,026.6,017.7,0000.0,0003.47,0002.46,0002.23
2024-05-11 10:43:00,SystemResetWarning,0831.2,5.01,000.00,024.9,024.1,000.0,033.3,026.6,017.7,0000.0,0003.47,0002.47,0002.24
2024-05-11 10:44:00,SystemResetWarning,0831.2,5.01,000.00,024.9,024.1,000.0,033.3,026.6,017.7,0000.0,0003.32,0002.50,0002.27
2024-05-11 10:45:00,SystemResetWarning,0831.3,4.99,000.00,024.8,024.1,000.0,033.3,026.6,017.7,0000.0,0003.37,0002.53,0002.30
2024-05-11 10:46:00,SystemResetWarning,0831.3,4.99,000.00,024.8,024.1,000.0,033.3,026.6,017.6,0000.0,0003.57,0002.59,0002.32
2024-05-11 10:47:00,SystemResetWarning,0831.3,5.02,000.00,024.8,024.1,000.0,033.2,026.6,017.6,0000.0,0003.58,0002.58,0002.33
2024-05-11 10:48:00,SystemResetWarning,0831.3,4.99,000.00,024.8,024.1,000.0,033.2,026.6,017.6,0000.0,0003.53,0002.54,0002.33
2024-05-11 10:49:00,SystemResetWarning,0831.3,5.00,000.00,024.8,024.1,000.0,033.2,026.6,017.5,0000.0,0003.50,0002.50,0002.31
2024-05-11 10:50:00,SystemResetWarning,0831.3,4.99,000.00,024.8,024.1,000.0,033.2,026.6,017.3,0000.0,0003.48,0002.49,0002.31
2024-05-11 10:51:00,SystemResetWarning,0831.3,5.00,000.00,024.8,024.1,000.0,033.2,026.6,017.4,0000.0,0003.50,0002.47,0002.27
2024-05-11 10:52:00,SystemResetWarning,0831.3,5.01,000.00,024.8,024.1,000.0,033.2,026.5,017.3,0000.0,0003.55,0002.47,0002.25
2024-05-11 10:53:00,SystemResetWarning,0831.3,5.00,000.00,024.8,024.0,000.0,033.2,026.5,017.2,0000.0,0003.76,0002.47,0002.23
2024-05-11 10:54:00,SystemResetWarning,0831.3,4.99,000.00,024.8,024.0,000.0,033.2,026.5,017.4,0000.0,0003.73,0002.44,0002.20
2024-05-11 10:55:00,SystemResetWarning,0831.3,4.99,000.00,024.8,024.0,000.0,033.2,026.5,017.6,0000.0,0003.74,0002.43,0002.18
2024-05-11 10:56:00,SystemResetWarning,0831.3,5.00,000.00,024.8,024.0,000.0,033.1,026.5,017.7,0000.0,0003.80,0002.45,0002.17
2024-05-11 10:57:00,SystemResetWarning,0831.3,5.00,000.00,024.7,024.0,000.0,033.1,026.5,017.7,0000.0,0003.76,0002.46,0002.17
2024-05-11 10:58:00,SystemResetWarning,0831.3,5.00,000.00,024.7,024.0,000.0,033.1,026.5,017.6,0000.0,0003.80,0002.47,0002.17
2024-05-11 10:59:00,SystemResetWarning,0831.2,5.01,000.00,024.7,024.0,000.0,033.1,026.5,017.7,0000.0,0003.91,0002.48,0002.17
